Погода в Уцмиюрте

Россия / Республика Дагестан     43°32′05″N   46°28′06″E
темп.,
°C
ветер,
м/с
пор.,
м/с
влажн.,
%
обл.,
%
осадки,
мм/ч
давл.,
гПа
погр.,
м
25 июня, сб
сб2500:00+18в488997 0.0 1008174
03:00+17вюв229311 0.0 100919
06:00+20ююв237678 0.0 1009238
09:00+26юв234728 0.0 10091128
12:00+29в5439100 0.0 10082097
15:00+30в6534100 0.0 10071873
18:00+26в4645100 0.4 1008428
21:00+21вюв2272100 0.9 100924
26 июня, вс
вс2600:00+19з3383100 0.0 100946
03:00+18з4688100 0.1 1008133
06:00+19з3683100 0.0 1009209
09:00+25зсз3352100 0.0 1008789
12:00+28зюз133999 0.0 10071395
15:00+33зюз2328100 0.0 10052562
18:00+30з3434100 0.1 1005754
21:00+21з61175100 0.6 1008267
27 июня, пн
пн2700:00+20з5107996 0.1 1009273
03:00+20з597867 0.1 1009240
06:00+22з7106744 0.0 1010440
09:00+25зсз665884 0.0 1010743
12:00+30сз344796 0.0 10101731
15:00+31св233983 0.0 10091793
18:00+29св554040 0.0 10101144
21:00+22ссв366446 0.0 101196
28 июня, вт
вт2800:00+20сз2270100 0.0 101116
03:00+19зюз3373100 0.0 101034
06:00+23зсз355675 0.0 1010203
09:00+29ссз34350 0.0 10091510
12:00+34с54210 0.0 10082333
15:00+33ссв75240 0.0 10082456
18:00+30св65288 0.0 10091589
21:00+23в2242100 0.0 101113
29 июня, ср
ср2900:00+21з225197 0.0 101111
03:00+20з22565 0.0 101114
06:00+23зсз34450 0.0 1012191
09:00+29ссз23324 0.0 10121448
12:00+33ссв5329100 0.0 10102932
15:00+29в7643100 0.0 10111622
18:00+26вюв785699 0.0 10121098
21:00+22в6972100 0.0 1014574